This is the latest recevied weather packets stored in our database for station/object W0AKY-13. If no packets are shown the sender has not sent any weather packets the latest 10 day(s).
| Time | Temp. | Humidity | Pressure | Rain* | Wind** | Luminosity | Snow |
|---|---|---|---|---|---|---|---|
| 1777332288 | 12.22° C | 77% | 1010.6 hPa | 0 mm | - | 36 W/m² | - |
| 1777331984 | 12.22° C | 78% | 1010.5 hPa | 0 mm | - | 63 W/m² | - |
| 1777331683 | 12.78° C | 78% | 1010.3 hPa | 0 mm | - | 28 W/m² | - |
| 1777331379 | 12.78° C | 79% | 1010.4 hPa | 0 mm | - | 39 W/m² | - |
| 1777331077 | 12.78° C | 78% | 1010.2 hPa | 0 mm | - | 39 W/m² | - |
| 1777330773 | 12.78° C | 78% | 1010.2 hPa | 0 mm | - | 35 W/m² | - |
| 1777330471 | 12.78° C | 79% | 1010.1 hPa | 0 mm | - | 32 W/m² | - |
| 1777330168 | 12.78° C | 78% | 1009.9 hPa | 0 mm | - | 31 W/m² | - |
| 1777329866 | 12.78° C | 79% | 1009.9 hPa | 0 mm | - | 35 W/m² | - |
| 1777329564 | 12.78° C | 80% | 1009.6 hPa | 0 mm | - | 36 W/m² | - |
| 1777329262 | 12.78° C | 78% | 1009.6 hPa | 0 mm | - | 43 W/m² | - |
| 1777328959 | 12.78° C | 78% | 1009.8 hPa | 0 mm | - | 69 W/m² | - |
| 1777328657 | 13.33° C | 79% | 1009.4 hPa | 0 mm | - | 47 W/m² | - |
| 1777328354 | 13.33° C | 79% | 1009.3 hPa | 0 mm | - | 55 W/m² | - |
| 1777328053 | 13.33° C | 79% | 1009.1 hPa | 0 mm | - | 70 W/m² | - |
| 1777327751 | 13.33° C | 79% | 1009.1 hPa | 0 mm | - | 68 W/m² | - |
| 1777327448 | 13.33° C | 79% | 1009 hPa | 0 mm | - | 83 W/m² | - |
| 1777327145 | 13.33° C | 79% | 1009 hPa | 0 mm | - | 94 W/m² | - |
| 1777326842 | 13.33° C | 78% | 1008.9 hPa | 0 mm | - | 62 W/m² | - |
| 1777326539 | 13.89° C | 78% | 1008.8 hPa | 0 mm | - | 74 W/m² | - |
| 1777326236 | 13.89° C | 77% | 1008.5 hPa | 0 mm | - | 88 W/m² | - |
| 1777325934 | 13.33° C | 77% | 1008.6 hPa | 0 mm | - | 149 W/m² | - |
| 1777325632 | 13.33° C | 79% | 1008.7 hPa | 0 mm | - | 110 W/m² | - |
| 1777325330 | 13.33° C | 80% | 1008.6 hPa | 0 mm | - | 119 W/m² | - |
| 1777325029 | 13.89° C | 79% | 1008.4 hPa | 0 mm | - | 88 W/m² | - |
* Rain latest hour (hover to see other rain measurements)
** Current wind speed in m/s (hover to see current wind gust speed)